This demonstration page uses our WeatherBlox Daily Observations layout. Learn more.

Left ArrowRight Arrow

38.88101, -77.10428

Hourly Observations for May 31, 2022

Temp ( °F °C ) Dew Point ( °F °C ) Humidity (%) Winds ( mph kmh ) Pressure ( in mb ) Visibility ( mi km ) Precip ( " mm )
12:52 am 00:52 Partly Cloudy 75 23.9 68 20 79 79 S 8 13 30.08 1019 10 16 0.00 0.00
1:52 am 01:52 Mostly Clear 74 23.3 68 20 82 82 S 7 11 30.07 1018 10 16 0.00 0.00
2:52 am 02:52 Mostly Clear 73 22.8 68 20 84 84 S 5 7 30.06 1018 10 16 0.00 0.00
3:52 am 03:52 Mostly Cloudy 72 22.2 68 20 87 87 S 5 7 30.06 1018 10 16 0.00 0.00
4:52 am 04:52 Mostly Cloudy 72 22.2 68 20 87 87 SSW 5 7 30.05 1018 10 16 0.00 0.00
5:52 am 05:52 Mostly Cloudy 72 22.2 67 19.4 84 84 SSW 3 6 30.05 1018 10 16 0.00 0.00
6:52 am 06:52 Mostly Cloudy 73 22.8 68 20 84 84 SSW 3 6 30.07 1018 10 16 0.00 0.00
7:52 am 07:52 Mostly Cloudy 76 24.4 67 19.4 74 74 SSW 3 6 30.08 1019 10 16 0.00 0.00
8:52 am 08:52 Partly Cloudy 77 25 68 20 74 74 SSE 5 7 30.07 1018 10 16 0.00 0.00
9:52 am 09:52 Mostly Sunny 82 27.8 69 20.6 65 65 Calm 30.07 1018 10 16 0.00 0.00
10:52 am 10:52 Mostly Sunny 88 31.1 66 18.9 48 48 NW 9 15 30.06 1018 10 16 0.00 0.00
11:52 am 11:52 Mostly Sunny 91 32.8 65 18.3 42 42 WNW 8 13 30.04 1017 10 16 0.00 0.00
12:52 pm 12:52 Mostly Sunny 93 33.9 65 18.3 40 40 VRB 7 11 30.03 1017 10 16 0.00 0.00
1:52 pm 13:52 Partly Cloudy 90 32.2 64 17.8 42 42 NNE 6 9 30.01 1016 10 16 0.00 0.00
2:52 pm 14:52 Partly Cloudy 94 34.4 62 16.7 35 35 NNW 7 11 29.99 1016 10 16 0.00 0.00
3:52 pm 15:52 Partly Cloudy 95 35 60 15.6 31 31 N 9 15 29.98 1015 10 16 0.00 0.00
4:52 pm 16:52 Partly Cloudy 95 35 61 16.1 32 32 NNW 8 13 29.97 1015 10 16 0.00 0.00
5:52 pm 17:52 Partly Cloudy 95 35 58 14.4 29 29 WNW 6 9 29.96 1014 10 16 0.00 0.00
6:52 pm 18:52 Mostly Cloudy 92 33.3 60 15.6 34 34 W 9 15 29.96 1014 10 16 0.00 0.00
7:52 pm 19:52 Mostly Cloudy 90 32.2 62 16.7 39 39 WSW 8 13 29.96 1015 10 16 0.00 0.00
8:52 pm 20:52 Mostly Cloudy 89 31.7 65 18.3 45 45 WSW 6 9 29.96 1015 10 16 0.00 0.00
9:52 pm 21:52 Mostly Cloudy 86 30 65 18.3 49 49 WSW 3 6 29.98 1015 10 16 0.00 0.00
10:52 pm 22:52 Partly Cloudy 81 27.2 70 21.1 69 69 S 7 11 29.97 1015 10 16 0.00 0.00
11:52 pm 23:52 Mostly Cloudy 79 26.1 71 21.7 77 77 S 6 9 29.97 1015 10 16 0.00 0.00

Powered by AerisWeather